Location: Fredericksburg
(30.2750°N, 98.8720°W)
Time: 20:56:28
(UTC-05:00)

PCSat - Visible Passes

Search period start: 28 April 2016 00:00
Search period end: 08 May 2016 00:00
Orbit: 785 x 796 km, 67.1° (Epoch: 28 April)

Date Brightness Start Highest point End Pass type
(mag) Time Alt. Az. Time Alt. Az. Time Alt. Az.
28 Apr 12.4 02:10:15 10° NNE 02:10:56 12° NNE 02:10:56 12° NNE visible
30 Apr 12.3 02:50:14 10° NNW 02:50:29 11° NNW 02:50:29 11° NNW visible
01 May 12.3 02:19:34 10° NNW 02:20:03 12° N 02:20:03 12° N visible
02 May 12.4 01:49:03 10° N 01:49:40 13° N 01:49:40 13° N visible
03 May 12.4 01:18:40 10° N 01:19:21 13° N 01:19:21 13° N visible
04 May 12.4 00:48:31 10° NNE 00:49:04 12° NNE 00:49:04 12° NNE visible
05 May 12.4 01:59:27 10° NNW 01:59:31 10° NNW 01:59:31 10° NNW visible
06 May 12.3 01:28:40 10° NNW 01:29:19 14° NNW 01:29:19 14° NNW visible
07 May 12.1 00:57:58 10° NNW 00:59:08 16° N 00:59:08 16° N visible
